Temperature
-4 -3 -3 -4 -4 -4 -4 -5 -4 -4 -5 -4 -5 -5 -4 -4 -4 -4 -4 -3 -3 -3 -3 -2 -2 -2 -2 -2 -1 -1 -1 -1 -1 -1 -0 0 0 1 1 1 1 1 1 1
-4 -3 -3 -4 -4 -4 -4 -5 -5 -5 -5 -5 -5 -5 -5 -4 -4 -4 -4 -4 -4 -4 -3 -3 -3 -2 -2 -2 -2 -2 -2 -2 -1 -1 -1 -1 -0 -0 -0 -0 -0 0 0 0
-4 -4 -3 -5 -5 -6 -5 -6 -6 -5 -5 -5 -5 -5 -5 -5 -5 -5 -5 -5 -5 -4 -4 -4 -3 -3 -3 -3 -2 -2 -2 -2 -2 -2 -2 -1 -1 -1 -1 -1 -1 -1 -0 -0
-5 -4 -4 -4 -6 -6 -6 -6 -6 -6 -6 -6 -5 -5 -5 -5 -5 -5 -5 -5 -5 -5 -4 -4 -4 -4 -3 -3 -3 -3 -3 -2 -2 -2 -2 -2 -2 -2 -2 -2 -1 -1 -1 -1
-5 -6 -5 -5 -5 -6 -6 -6 -7 -7 -6 -6 -6 -6 -5 -5 -5 -5 -6 -5 -5 -5 -5 -4 -4 -4 -4 -4 -3 -3 -3 -3 -3 -3 -3 -3 -3 -3 -2 -2 -2 -2 -2 -2
-6 -5 -5 -5 -6 -6 -6 -6 -6 -7 -7 -6 -6 -7 -6 -6 -6 -6 -6 -6 -5 -5 -5 -5 -5 -4 -4 -4 -4 -4 -4 -4 -3 -3 -3 -3 -3 -3 -3 -3 -3 -3 -3 -2
-7 -7 -6 -7 -7 -6 -6 -6 -6 -6 -6 -6 -7 -7 -6 -6 -6 -6 -6 -6 -6 -6 -5 -5 -5 -5 -5 -5 -5 -4 -4 -4 -4 -4 -4 -4 -4 -3 -3 -3 -3 -3 -3 -3
-7 -7 -6 -7 -7 -7 -7 -6 -6 -6 -6 -6 -6 -6 -6 -6 -6 -6 -6 -6 -6 -6 -6 -6 -6 -6 -5 -5 -5 -5 -5 -5 -5 -4 -4 -4 -4 -4 -4 -4 -4 -4 -4 -3
-8 -6 -6 -6 -6 -6 -6 -6 -6 -6 -6 -7 -7 -7 -7 -7 -7 -7 -7 -7 -7 -7 -6 -6 -6 -6 -6 -6 -6 -6 -6 -5 -5 -5 -5 -5 -5 -5 -5 -5 -4 -4 -4 -4
-9 -8 -7 -6 -6 -6 -6 -6 -6 -7 -7 -7 -7 -7 -7 -7 -7 -7 -7 -7 -7 -7 -7 -7 -7 -7 -7 -7 -7 -6 -6 -6 -6 -6 -5 -5 -5 -5 -5 -5 -5 -5 -5 -5
-9 -8 -7 -6 -6 -6 -6 -7 -7 -7 -7 -7 -8 -8 -8 -8 -7 -7 -7 -7 -7 -7 -7 -7 -7 -7 -7 -7 -7 -7 -7 -7 -6 -6 -6 -6 -6 -6 -6 -6 -6 -6 -5 -5
-8 -7 -8 -7 -6 -6 -7 -7 -7 -7 -7 -7 -8 -8 -8 -8 -8 -8 -8 -8 -8 -8 -8 -7 -7 -7 -7 -7 -7 -7 -7 -7 -7 -7 -7 -7 -6 -6 -6 -6 -6 -6 -6 -6
-6 -6 -6 -6 -6 -7 -7 -7 -7 -8 -8 -8 -8 -8 -8 -8 -8 -8 -8 -8 -8 -8 -8 -8 -8 -8 -8 -7 -7 -7 -7 -7 -7 -7 -7 -7 -7 -7 -7 -6 -6 -6 -6 -6
-6 -7 -7 -7 -7 -7 -7 -7 -8 -8 -8 -8 -8 -8 -8 -8 -8 -8 -8 -8 -8 -8 -8 -8 -8 -8 -8 -8 -8 -8 -8 -8 -8 -7 -7 -7 -7 -7 -7 -7 -7 -7 -6 -6
-7 -7 -7 -7 -7 -7 -8 -8 -8 -8 -8 -8 -8 -8 -8 -8 -9 -9 -9 -9 -9 -9 -8 -8 -8 -8 -8 -8 -8 -8 -8 -8 -8 -8 -8 -8 -8 -8 -8 -8 -8 -7 -7 -7
-7 -7 -7 -7 -7 -8 -8 -8 -8 -8 -8 -9 -9 -9 -9 -9 -9 -9 -9 -9 -9 -9 -9 -9 -9 -9 -8 -8 -8 -8 -8 -8 -8 -8 -8 -8 -8 -8 -8 -8 -8 -8 -8 -8
-7 -7 -7 -8 -8 -8 -8 -8 -8 -9 -9 -9 -9 -9 -9 -9 -9 -9 -9 -9 -9 -9 -9 -9 -9 -9 -9 -9 -9 -9 -9 -9 -9 -8 -8 -8 -9 -9 -8 -8 -8 -8 -8 -8
-7 -7 -8 -8 -8 -8 -8 -9 -9 -9 -9 -9 -9 -9 -9 -10 -10 -9 -9 -9 -9 -9 -9 -9 -9 -9 -9 -9 -9 -9 -9 -9 -9 -9 -9 -9 -9 -9 -9 -9 -9 -9 -9 -9
-7 -8 -8 -8 -8 -9 -9 -9 -9 -9 -9 -9 -9 -10 -10 -10 -10 -10 -10 -10 -10 -10 -10 -10 -10 -10 -9 -9 -9 -9 -9 -9 -9 -9 -9 -9 -9 -9 -9 -9 -9 -9 -9 -9
-8 -8 -8 -8 -9 -9 -9 -9 -9 -9 -9 -10 -10 -10 -10 -10 -10 -10 -10 -10 -10 -10 -10 -10 -10 -10 -10 -10 -10 -10 -10 -9 -9 -9 -10 -10 -10 -10 -10 -10 -10 -10 -9 -9
-8 -8 -9 -9 -9 -9 -9 -9 -10 -10 -10 -10 -10 -10 -10 -10 -10 -10 -10 -10 -10 -10 -10 -10 -10 -10 -10 -10 -10 -10 -10 -10 -10 -10 -10 -10 -10 -10 -10 -10 -10 -10 -10 -10
-8 -9 -9 -9 -9 -9 -10 -10 -10 -10 -10 -10 -10 -10 -10 -10 -10 -10 -11 -11 -10 -11 -11 -10 -10 -11 -11 -11 -10 -10 -10 -10 -10 -10 -10 -10 -10 -10 -10 -10 -10 -10 -10 -10
-9 -9 -9 -9 -9 -10 -10 -10 -10 -10 -10 -10 -11 -11 -11 -11 -11 -11 -11 -11 -11 -11 -11 -11 -11 -11 -11 -11 -11 -11 -11 -11 -11 -11 -11 -11 -11 -11 -11 -11 -11 -11 -11 -10
-9 -9 -9 -10 -10 -10 -10 -10 -10 -11 -11 -11 -11 -11 -11 -11 -11 -11 -11 -11 -11 -11 -11 -11 -11 -11 -11 -11 -11 -11 -11 -11 -11 -11 -11 -11 -11 -11 -11 -11 -11 -11 -11 -11
-9 -10 -10 -10 -10 -10 -10 -11 -11 -11 -11 -11 -11 -11 -11 -11 -11 -11 -11 -11 -11 -11 -11 -11 -11 -11 -11 -11 -11 -11 -11 -11 -11 -11 -11 -11 -11 -11 -11 -11 -11 -11 -11 -11
-10 -10 -10 -10 -11 -11 -11 -11 -11 -11 -11 -11 -11 -11 -12 -12 -12 -12 -12 -12 -12 -12 -12 -12 -12 -12 -12 -12 -12 -12 -12 -12 -12 -12 -12 -12 -12 -12 -12 -11 -11 -11 -11 -11
-10 -10 -11 -11 -11 -11 -11 -11 -11 -12 -12 -12 -12 -12 -12 -12 -12 -12 -12 -12 -12 -12 -12 -12 -12 -12 -12 -12 -12 -12 -12 -12 -12 -12 -12 -12 -12 -12 -12 -12 -12 -12 -12 -11
Wind_Speed
5 5 2 3 5 3 1 3 4 4 4 5 4 4 4 4 4 5 5 5 5 4 4 4 4 3 3 3 4 3 2 2 1 1 1 1 1 1 1 1 2 1 1 2
3 3 2 4 6 4 3 3 3 4 5 4 3 3 3 4 4 5 5 6 6 5 5 5 4 4 4 4 4 3 2 2 2 1 1 1 1 1 1 2 2 2 2 2
3 4 3 4 5 3 2 2 3 4 5 4 3 4 3 3 4 4 5 5 6 5 5 5 5 4 4 4 4 3 3 3 2 2 1 1 1 1 1 2 2 2 3 2
2 3 2 5 1 1 2 2 1 2 3 3 4 4 3 2 2 3 4 5 6 5 5 5 4 4 4 3 3 3 3 3 3 2 2 2 1 2 2 2 2 3 3 3
0 1 5 5 2 1 2 4 2 3 4 4 3 3 3 3 2 3 4 5 5 5 4 4 5 4 3 3 3 3 4 4 3 3 2 2 2 3 3 2 3 3 3 3
1 1 4 5 4 3 1 4 3 2 4 4 3 2 4 5 4 4 5 4 4 4 4 4 5 4 3 3 3 4 4 4 4 3 3 3 3 3 3 2 3 3 3 3
2 3 6 4 3 1 2 5 4 3 4 3 3 5 5 5 5 4 4 5 4 4 4 4 5 4 3 3 4 5 5 4 4 3 3 3 3 3 2 2 2 2 3 3
2 3 6 1 2 3 5 3 3 3 3 4 5 5 5 5 5 5 5 5 4 4 4 5 4 3 3 4 5 4 4 4 4 4 3 3 2 2 2 2 2 2 2 3
6 6 3 3 4 4 2 3 4 3 4 4 4 5 5 5 5 5 5 5 4 3 4 5 4 3 3 5 4 4 3 3 4 4 3 3 2 2 2 2 2 2 2 2
4 6 5 5 4 4 3 4 4 4 4 3 4 5 5 5 5 5 5 4 4 4 4 5 5 4 3 4 4 3 3 3 4 3 3 3 2 2 2 2 2 2 3 3
4 5 5 4 5 5 5 4 4 4 4 4 4 5 5 5 5 5 5 5 4 4 4 5 5 4 4 3 3 3 3 3 4 3 2 2 3 2 2 2 3 3 3 3
7 6 5 6 5 4 3 4 4 4 4 4 4 5 5 5 5 4 5 5 5 5 5 5 4 4 4 3 2 2 3 3 3 3 2 2 2 3 5 4 5 5 5 4
6 4 4 5 4 3 3 4 4 4 4 5 5 4 4 5 4 4 5 5 5 6 5 5 4 4 4 3 3 2 3 3 3 3 2 2 2 3 4 5 6 5 5 5
4 2 3 4 4 3 3 4 4 4 4 4 4 4 4 4 5 5 5 6 6 5 5 4 4 5 4 3 3 3 3 3 3 2 2 2 2 2 2 3 4 4 5 6
4 4 5 4 3 3 2 2 3 4 4 4 4 4 4 4 5 6 6 5 5 5 5 4 4 5 4 3 3 3 2 2 2 2 2 2 2 2 2 2 3 3 3 4
3 2 3 3 4 4 3 3 4 5 4 4 4 5 5 5 5 5 5 4 4 5 5 5 5 5 4 3 3 3 2 3 3 2 2 2 2 2 2 2 2 3 3 3
2 3 3 4 4 5 4 4 4 5 5 5 5 5 4 4 5 5 5 5 4 5 4 4 5 5 4 3 3 2 2 3 4 3 2 2 2 2 2 2 2 3 3 4
5 5 5 5 5 5 5 4 4 5 5 5 5 4 4 4 5 6 6 5 4 4 4 4 4 4 3 3 2 2 2 2 2 2 2 2 2 2 2 2 2 3 3 3
3 4 4 4 4 4 4 5 5 5 5 4 4 4 5 5 5 6 5 4 4 5 5 5 7 4 3 4 3 1 2 2 2 2 2 3 3 2 2 2 2 3 3 3
2 2 3 3 3 3 4 4 4 4 4 4 4 4 5 5 5 5 4 4 4 4 5 5 4 3 3 3 3 1 2 2 2 2 2 2 2 2 2 2 3 3 3 3
3 3 3 3 3 4 4 4 4 4 5 3 3 5 5 5 5 3 3 4 5 4 4 6 3 3 3 3 3 1 2 2 2 2 2 2 2 2 2 3 3 3 3 3
3 3 3 3 3 4 4 3 3 4 4 4 4 4 4 5 5 4 3 4 5 6 4 3 3 4 5 4 1 1 2 2 2 1 2 2 2 2 3 3 3 3 3 3
3 3 3 3 3 4 4 3 3 3 4 4 4 4 4 4 4 3 4 3 4 6 4 3 5 6 6 2 1 1 2 2 2 2 2 2 2 2 3 3 3 3 3 4
3 3 3 3 2 2 4 4 3 3 3 4 4 4 4 4 3 3 3 6 6 6 3 5 7 6 5 2 1 1 2 2 2 2 2 2 2 2 3 3 4 4 4 4
3 3 2 2 2 3 4 4 3 3 3 3 4 4 3 3 3 4 3 4 6 6 3 5 6 6 3 2 2 2 2 2 2 2 2 2 3 3 3 3 4 4 4 4
2 2 3 3 3 3 3 2 2 3 3 3 4 3 3 3 3 3 3 3 4 5 3 3 3 4 2 2 2 2 2 3 4 3 3 3 3 3 3 4 5 4 4 5
2 2 2 2 2 2 2 2 3 3 3 3 4 3 3 3 3 3 3 3 3 3 3 3 2 2 2 2 2 2 3 3 3 3 3 3 3 3 4 4 4 5 5 6
Wind_Direction
253 256 272 311 314 333 213 218 220 251 243 274 300 308 318 330 339 346 352 357 352 341 340 343 342 343 346 346 342 337 327 309 292 281 279 285 298 310 317 300 283 276 284 283
287 262 281 326 326 300 266 261 250 275 281 285 304 323 329 336 341 343 345 340 337 335 339 334 330 329 332 333 329 328 321 304 298 293 293 295 296 297 302 301 297 289 274 269
292 318 346 316 296 264 251 248 209 239 262 305 321 316 308 316 327 329 329 328 325 323 320 317 315 313 314 314 320 329 321 315 314 303 292 288 294 302 295 291 293 288 279 271
301 11 276 253 283 233 237 278 276 251 279 299 289 296 287 273 298 313 317 317 316 315 317 318 318 319 319 320 322 327 321 314 311 311 301 303 305 292 288 284 277 280 283 280
196 278 275 290 308 260 227 286 311 276 294 310 327 347 316 316 318 295 299 301 300 301 305 316 321 322 328 332 333 334 322 313 306 300 297 300 299 290 287 284 282 280 278 278
142 210 253 269 295 301 155 282 308 298 290 304 346 323 290 312 317 311 312 312 313 317 325 325 321 328 339 334 334 325 316 309 305 298 291 287 287 289 290 283 282 289 291 285
203 232 263 273 295 54 149 270 300 282 278 286 259 248 277 300 306 307 309 313 317 320 322 315 318 329 330 327 318 312 314 314 314 309 300 291 294 297 296 293 297 296 300 301
182 219 259 254 114 178 234 277 282 280 273 270 269 281 292 299 304 314 318 318 318 318 318 320 323 327 323 316 311 318 327 329 323 316 311 313 304 303 303 291 283 288 299 307
200 220 247 195 204 237 243 257 268 271 273 268 276 287 296 301 304 309 313 314 313 307 313 319 324 319 306 308 317 324 331 329 322 321 325 325 308 297 300 290 275 284 287 291
250 261 262 254 257 276 258 255 268 268 272 269 271 284 293 299 307 312 311 312 316 315 317 316 317 313 298 305 316 323 324 321 320 324 328 335 329 313 302 290 281 277 273 278
254 274 294 269 251 259 269 272 277 285 278 272 275 284 285 291 299 306 311 311 314 311 304 303 310 312 309 310 315 323 320 322 326 327 323 332 335 326 313 299 282 280 273 267
233 232 221 254 252 249 257 274 278 284 293 291 278 278 286 290 292 298 307 312 313 312 307 306 311 315 314 309 305 310 319 322 318 317 319 326 328 332 334 329 332 328 314 303
232 236 230 256 261 244 249 271 279 274 272 286 290 284 288 293 298 303 306 309 309 306 302 305 312 316 316 311 308 301 300 305 307 309 309 313 320 326 333 342 347 350 349 341
232 229 258 252 252 259 260 273 284 287 284 285 290 298 298 298 306 308 303 301 303 309 310 311 313 313 315 314 305 299 301 306 308 299 302 306 313 319 321 328 339 344 350 354
245 227 234 256 270 276 277 289 301 301 302 305 304 303 302 299 299 299 299 303 311 313 312 314 315 315 320 318 316 306 300 302 304 307 309 311 315 319 321 329 332 333 340 351
263 254 244 254 266 277 290 290 288 291 296 297 299 300 297 292 291 298 303 307 312 308 306 306 306 310 316 312 312 312 308 317 321 316 317 324 327 327 328 333 334 333 336 339
231 258 254 264 273 279 279 270 267 276 285 286 287 292 298 303 305 306 307 305 296 292 300 303 301 309 311 306 303 305 313 318 324 325 323 319 321 321 322 326 327 329 331 334
229 239 240 241 251 266 279 282 279 282 280 280 289 296 300 298 295 296 299 306 312 314 311 308 312 318 313 310 301 296 302 305 312 312 315 313 316 318 321 321 323 325 328 330
240 242 246 248 249 252 264 273 279 281 284 287 290 290 287 285 285 289 295 301 304 305 306 308 317 323 310 305 315 294 297 299 307 313 317 314 321 326 326 323 321 321 321 324
249 250 253 261 263 256 265 273 278 284 285 284 285 289 293 293 293 296 294 284 274 276 289 301 306 306 302 301 314 299 289 290 295 303 307 303 304 312 316 315 315 315 317 318
257 261 263 269 278 276 270 273 279 286 293 287 278 281 286 293 296 294 292 293 295 298 305 309 313 304 303 304 303 297 287 295 298 296 298 298 300 304 306 307 307 310 313 315
256 254 258 263 270 282 285 280 273 280 289 290 285 284 289 296 300 292 270 267 290 309 316 302 304 308 317 313 304 292 290 291 293 295 295 297 297 298 301 305 305 309 312 313
253 251 256 260 262 275 292 289 280 280 284 287 288 287 285 288 291 289 294 291 295 306 314 301 310 317 323 329 321 288 286 287 291 293 288 286 286 287 290 296 298 300 304 307
253 256 258 262 262 280 291 292 291 287 284 285 286 285 285 295 295 278 277 300 312 313 311 309 318 324 331 352 324 300 286 284 285 287 286 283 283 284 286 289 292 295 296 300
256 257 258 260 265 269 273 286 296 297 297 296 295 294 288 278 280 296 302 303 308 314 312 312 318 325 335 330 315 306 299 293 291 286 280 283 285 285 285 285 286 287 290 293
253 257 257 255 258 269 275 280 285 290 296 302 306 301 301 299 292 297 304 306 309 319 323 315 317 320 325 319 310 306 300 304 310 308 299 292 288 286 286 286 287 284 284 283
265 267 271 281 279 271 269 270 276 284 287 289 296 302 308 311 312 312 310 312 314 316 316 318 318 316 314 311 307 303 299 298 295 295 294 290 287 286 286 283 281 281 281 281
Height
1534 1531 1530 1529 1528 1527 1528 1527 1527 1523 1522 1518 1517 1515 1513 1511 1509 1507 1505 1503 1502 1501 1499 1499 1498 1498 1497 1496 1496 1496 1496 1496 1496 1496 1497 1498 1498 1498 1499 1500 1501 1501 1502 1502
1532 1528 1528 1528 1526 1526 1525 1526 1525 1523 1521 1517 1516 1515 1513 1511 1509 1506 1504 1503 1502 1500 1499 1498 1497 1496 1495 1494 1494 1494 1494 1493 1494 1494 1494 1494 1495 1495 1496 1496 1497 1497 1498 1499
1534 1530 1527 1530 1528 1528 1526 1525 1524 1524 1521 1517 1515 1514 1512 1511 1509 1507 1505 1503 1501 1500 1498 1496 1495 1495 1493 1493 1493 1492 1492 1491 1491 1491 1491 1491 1491 1492 1492 1492 1493 1493 1494 1494
1536 1535 1537 1530 1526 1526 1525 1523 1522 1520 1518 1516 1514 1513 1511 1510 1508 1506 1505 1502 1500 1498 1497 1495 1494 1493 1492 1491 1491 1490 1489 1488 1488 1488 1487 1487 1488 1488 1488 1488 1489 1489 1489 1490
1540 1541 1534 1527 1525 1526 1527 1523 1520 1519 1517 1515 1513 1512 1510 1509 1508 1506 1504 1502 1500 1497 1495 1494 1492 1491 1490 1489 1489 1488 1487 1486 1485 1485 1484 1484 1484 1484 1484 1485 1485 1485 1485 1485
1541 1540 1537 1528 1525 1523 1525 1523 1519 1518 1516 1515 1513 1514 1510 1508 1506 1504 1502 1500 1498 1496 1494 1492 1491 1489 1488 1487 1486 1485 1484 1483 1482 1482 1481 1481 1481 1481 1481 1481 1481 1481 1481 1481
1542 1542 1534 1528 1524 1523 1529 1524 1518 1517 1515 1514 1513 1512 1509 1506 1504 1503 1500 1498 1496 1494 1492 1490 1489 1487 1486 1484 1483 1482 1481 1480 1479 1479 1478 1478 1478 1477 1477 1477 1477 1477 1477 1477
1541 1541 1534 1524 1524 1526 1524 1519 1517 1516 1514 1512 1510 1509 1507 1505 1502 1500 1498 1496 1494 1492 1490 1488 1487 1485 1483 1482 1481 1480 1478 1477 1477 1476 1476 1475 1475 1474 1474 1474 1473 1473 1473 1473
1534 1530 1523 1521 1520 1519 1519 1517 1515 1514 1512 1511 1508 1506 1504 1502 1500 1498 1496 1494 1492 1490 1488 1486 1485 1483 1481 1480 1479 1477 1476 1475 1474 1473 1473 1472 1472 1471 1471 1470 1470 1469 1469 1468
1529 1523 1520 1519 1518 1517 1516 1515 1513 1512 1510 1508 1506 1504 1502 1500 1498 1496 1494 1492 1490 1488 1485 1483 1482 1480 1479 1478 1477 1475 1474 1473 1472 1471 1470 1469 1469 1468 1468 1467 1467 1466 1465 1465
1525 1520 1518 1516 1515 1515 1514 1512 1511 1509 1508 1506 1504 1502 1500 1497 1495 1493 1491 1489 1487 1485 1483 1481 1479 1478 1477 1475 1474 1473 1472 1470 1469 1469 1468 1467 1466 1466 1465 1464 1464 1463 1462 1462
1520 1516 1516 1513 1512 1512 1511 1509 1508 1506 1505 1503 1502 1499 1497 1495 1493 1491 1489 1487 1485 1482 1480 1478 1477 1475 1474 1473 1472 1471 1469 1468 1467 1466 1465 1464 1463 1463 1462 1462 1461 1460 1460 1459
1513 1512 1512 1511 1510 1509 1508 1507 1506 1504 1502 1500 1499 1497 1495 1492 1490 1488 1486 1484 1482 1480 1478 1476 1474 1473 1472 1471 1470 1469 1467 1466 1465 1464 1463 1462 1461 1460 1459 1459 1458 1458 1457 1456
1510 1510 1509 1508 1507 1507 1505 1504 1503 1501 1500 1498 1496 1494 1492 1490 1488 1486 1484 1482 1480 1478 1476 1474 1472 1471 1470 1469 1468 1467 1466 1465 1463 1462 1461 1460 1459 1459 1458 1456 1455 1454 1454 1453
1508 1508 1507 1506 1505 1504 1503 1501 1500 1498 1497 1495 1493 1491 1489 1487 1485 1483 1481 1479 1477 1476 1474 1472 1470 1469 1468 1467 1466 1465 1464 1463 1461 1460 1460 1459 1458 1457 1456 1455 1454 1453 1451 1451
1505 1504 1504 1503 1502 1501 1499 1498 1496 1495 1494 1492 1490 1489 1487 1485 1483 1481 1479 1477 1475 1473 1471 1470 1468 1467 1466 1465 1464 1463 1462 1461 1460 1459 1458 1457 1456 1455 1454 1453 1452 1451 1450 1449
1502 1501 1500 1500 1499 1497 1496 1495 1494 1492 1491 1489 1487 1486 1484 1482 1480 1478 1476 1474 1472 1471 1470 1468 1467 1466 1465 1463 1462 1461 1460 1459 1458 1457 1456 1455 1455 1454 1453 1452 1451 1450 1449 1448
1500 1499 1498 1497 1496 1495 1493 1492 1491 1489 1488 1486 1484 1483 1481 1479 1477 1475 1473 1472 1470 1469 1467 1466 1465 1464 1463 1462 1461 1459 1458 1457 1456 1455 1455 1454 1453 1452 1451 1450 1449 1448 1447 1447
1497 1496 1495 1494 1493 1492 1490 1489 1488 1486 1485 1483 1482 1480 1478 1476 1474 1472 1470 1469 1467 1466 1465 1464 1463 1462 1461 1460 1459 1458 1456 1455 1455 1454 1453 1452 1451 1450 1449 1449 1448 1447 1446 1444
1495 1494 1493 1492 1491 1489 1488 1486 1485 1483 1482 1480 1479 1477 1475 1473 1471 1469 1468 1466 1465 1463 1463 1462 1461 1459 1458 1457 1456 1455 1454 1453 1453 1452 1451 1450 1449 1448 1448 1447 1446 1445 1444 1443
1492 1491 1490 1489 1487 1486 1485 1483 1482 1480 1479 1478 1476 1474 1472 1470 1469 1467 1465 1463 1462 1461 1460 1459 1458 1457 1456 1455 1454 1453 1452 1451 1451 1450 1449 1448 1447 1446 1445 1445 1444 1443 1442 1440
1489 1488 1487 1486 1484 1483 1482 1481 1479 1477 1476 1474 1473 1471 1469 1467 1466 1464 1462 1461 1460 1458 1457 1456 1455 1455 1454 1453 1452 1451 1450 1449 1448 1447 1446 1446 1445 1444 1443 1442 1441 1440 1439 1438
1486 1485 1484 1483 1482 1480 1479 1478 1476 1475 1473 1471 1469 1468 1466 1464 1463 1461 1459 1459 1457 1456 1454 1453 1453 1452 1451 1450 1449 1448 1448 1447 1446 1445 1444 1443 1442 1441 1440 1439 1438 1437 1436 1434
1484 1482 1481 1480 1479 1477 1476 1475 1473 1472 1470 1468 1467 1465 1463 1461 1460 1458 1457 1456 1454 1453 1452 1451 1450 1449 1448 1448 1447 1446 1445 1444 1443 1442 1441 1440 1439 1438 1437 1436 1435 1434 1433 1431
1481 1479 1478 1477 1476 1474 1473 1472 1470 1469 1467 1465 1464 1462 1461 1459 1457 1456 1454 1453 1452 1451 1449 1448 1448 1447 1446 1445 1444 1443 1442 1441 1440 1439 1438 1437 1436 1435 1434 1433 1432 1431 1429 1428
1477 1476 1475 1474 1473 1472 1470 1469 1467 1466 1464 1462 1461 1459 1458 1456 1455 1453 1452 1450 1449 1448 1447 1446 1445 1444 1443 1442 1441 1440 1439 1438 1437 1436 1435 1434 1433 1432 1431 1430 1429 1427 1426 1425
1474 1473 1472 1471 1470 1469 1467 1466 1464 1462 1461 1459 1458 1456 1455 1453 1452 1451 1449 1448 1446 1445 1444 1443 1442 1441 1440 1439 1438 1437 1436 1435 1434 1433 1432 1431 1430 1429 1428 1426 1425 1424 1423 1421